Time,TemperatureF,DewpointF,PressureIn,WindDirection,WindDirectionDegrees,WindSpeedMPH,WindSpeedGustMPH,Humidity,HourlyPrecipIn,Conditions,Clouds,dailyrainin,SolarRadiationWatts/m^2,SoftwareType,DateUTC
2013-02-21 00:00:00,20.0,16.0,-100.00,NW,315,3.0,-999.0,84,-99.99,,,-99.99,0.000000,,2013-02-21 05:00:00,
2013-02-21 00:37:00,20.0,16.0,-100.00,NW,315,3.0,-999.0,84,-99.99,,,-99.99,0.000000,,2013-02-21 05:37:00,
2013-02-21 00:46:00,20.0,16.0,-100.00,NW,315,3.0,-999.0,84,-99.99,,,-99.99,0.000000,,2013-02-21 05:46:00,
2013-02-21 01:00:00,20.0,16.0,-100.00,NW,315,3.0,-999.0,85,-99.99,,,-99.99,0.000000,,2013-02-21 06:00:00,
2013-02-21 01:31:00,20.0,16.0,-100.00,NW,315,3.0,-999.0,85,-99.99,,,-99.99,0.000000,,2013-02-21 06:31:00,
2013-02-21 01:42:00,20.0,16.0,-100.00,NW,315,3.0,-999.0,85,-99.99,,,-99.99,0.000000,,2013-02-21 06:42:00,
2013-02-21 01:52:00,20.0,16.0,-100.00,NW,315,3.0,-999.0,85,-99.99,,,-99.99,0.000000,,2013-02-21 06:52:00,
2013-02-21 02:00:00,20.0,16.0,-100.00,NW,315,3.0,-999.0,83,-99.99,,,-99.99,0.000000,,2013-02-21 07:00:00,
2013-02-21 02:42:00,20.0,16.0,-100.00,NW,315,3.0,-999.0,83,-99.99,,,-99.99,0.000000,,2013-02-21 07:42:00,
2013-02-21 02:52:00,20.0,16.0,-100.00,NW,315,3.0,-999.0,83,-99.99,,,-99.99,0.000000,,2013-02-21 07:52:00,
2013-02-21 03:00:00,20.0,16.0,-100.00,NW,315,3.0,-999.0,83,-99.99,,,-99.99,0.000000,,2013-02-21 08:00:00,
2013-02-21 03:42:00,20.0,16.0,-100.00,NW,315,3.0,-999.0,83,-99.99,,,-99.99,0.000000,,2013-02-21 08:42:00,
2013-02-21 03:52:00,20.0,16.0,-100.00,NW,315,3.0,-999.0,83,-99.99,,,-99.99,0.000000,,2013-02-21 08:52:00,
2013-02-21 04:00:00,20.0,15.0,-100.00,SSW,202,6.0,-999.0,80,-99.99,,,-99.99,0.000000,,2013-02-21 09:00:00,
2013-02-21 04:42:00,20.0,15.0,-100.00,SSW,202,6.0,-999.0,80,-99.99,,,-99.99,0.000000,,2013-02-21 09:42:00,
2013-02-21 04:52:00,20.0,15.0,-100.00,SSW,202,6.0,-999.0,80,-99.99,,,-99.99,0.000000,,2013-02-21 09:52:00,
2013-02-21 05:00:00,20.0,15.0,-100.00,ESE,112,7.0,-999.0,80,-99.99,,,-99.99,0.000000,,2013-02-21 10:00:00,
2013-02-21 05:31:00,20.0,15.0,-100.00,ESE,112,7.0,-999.0,80,-99.99,,,-99.99,0.000000,,2013-02-21 10:31:00,
2013-02-21 05:41:00,20.0,15.0,-100.00,ESE,112,7.0,-999.0,80,-99.99,,,-99.99,0.000000,,2013-02-21 10:41:00,
2013-02-21 05:51:00,20.0,15.0,-100.00,ESE,112,7.0,-999.0,80,-99.99,,,-99.99,0.000000,,2013-02-21 10:51:00,
2013-02-21 06:00:00,20.0,15.0,-100.00,ESE,112,7.0,-999.0,81,-99.99,,,-99.99,0.000000,,2013-02-21 11:00:00,
2013-02-21 06:41:00,20.0,15.0,-100.00,ESE,112,7.0,-999.0,81,-99.99,,,-99.99,0.000000,,2013-02-21 11:41:00,
2013-02-21 06:52:00,20.0,15.0,-100.00,ESE,112,7.0,-999.0,81,-99.99,,,-99.99,0.000000,,2013-02-21 11:52:00,
2013-02-21 07:00:00,20.0,15.0,-100.00,SSW,202,5.0,-999.0,81,-99.99,,,-99.99,0.000000,,2013-02-21 12:00:00,
2013-02-21 07:43:00,20.0,15.0,-100.00,SSW,202,5.0,-999.0,81,-99.99,,,-99.99,0.000000,,2013-02-21 12:43:00,
2013-02-21 07:53:00,20.0,15.0,-100.00,SSW,202,5.0,-999.0,81,-99.99,,,-99.99,0.000000,,2013-02-21 12:53:00,
2013-02-21 09:00:00,20.0,16.0,-100.00,NNE,22,6.0,-999.0,81,-99.99,,,-99.99,51.040001,,2013-02-21 14:00:00,
2013-02-21 09:42:00,20.0,16.0,-100.00,NNE,22,6.0,-999.0,81,-99.99,,,-99.99,51.040001,,2013-02-21 14:42:00,
2013-02-21 09:52:00,20.0,16.0,-100.00,NNE,22,6.0,-999.0,81,-99.99,,,-99.99,51.040001,,2013-02-21 14:52:00,
2013-02-21 10:00:00,22.0,16.0,-100.00,SE,135,5.0,-999.0,79,-99.99,,,-99.99,100.919998,,2013-02-21 15:00:00,
2013-02-21 10:42:00,22.0,16.0,-100.00,SE,135,5.0,-999.0,79,-99.99,,,-99.99,100.919998,,2013-02-21 15:42:00,
2013-02-21 10:52:00,22.0,16.0,-100.00,SE,135,5.0,-999.0,79,-99.99,,,-99.99,100.919998,,2013-02-21 15:52:00,
2013-02-21 11:00:00,22.0,16.0,-100.00,NE,45,5.0,-999.0,79,-99.99,,,-99.99,168.199997,,2013-02-21 16:00:00,
2013-02-21 11:42:00,22.0,16.0,-100.00,NE,45,5.0,-999.0,79,-99.99,,,-99.99,168.199997,,2013-02-21 16:42:00,
2013-02-21 11:52:00,22.0,16.0,-100.00,NE,45,5.0,-999.0,79,-99.99,,,-99.99,168.199997,,2013-02-21 16:52:00,
2013-02-21 12:00:00,23.0,17.0,-100.00,ENE,67,6.0,-999.0,79,-99.99,,,-99.99,238.960007,,2013-02-21 17:00:00,
2013-02-21 12:42:00,23.0,17.0,-100.00,ENE,67,6.0,-999.0,79,-99.99,,,-99.99,238.960007,,2013-02-21 17:42:00,
2013-02-21 12:52:00,23.0,17.0,-100.00,ENE,67,6.0,-999.0,79,-99.99,,,-99.99,238.960007,,2013-02-21 17:52:00,
2013-02-21 14:00:00,24.0,18.0,-100.00,ENE,67,7.0,-999.0,77,-99.99,,,-99.99,222.720001,,2013-02-21 19:00:00,
2013-02-21 14:42:00,24.0,18.0,-100.00,ENE,67,7.0,-999.0,77,-99.99,,,-99.99,222.720001,,2013-02-21 19:42:00,
2013-02-21 14:52:00,24.0,18.0,-100.00,ENE,67,7.0,-999.0,77,-99.99,,,-99.99,222.720001,,2013-02-21 19:52:00,
2013-02-21 15:00:00,25.0,19.0,-100.00,ENE,67,9.0,-999.0,78,-99.99,,,-99.99,242.440002,,2013-02-21 20:00:00,
2013-02-21 15:42:00,25.0,19.0,-100.00,ENE,67,9.0,-999.0,78,-99.99,,,-99.99,242.440002,,2013-02-21 20:42:00,
2013-02-21 15:53:00,25.0,19.0,-100.00,ENE,67,9.0,-999.0,78,-99.99,,,-99.99,242.440002,,2013-02-21 20:53:00,
2013-02-21 16:00:00,25.0,20.0,-100.00,ENE,67,10.0,-999.0,78,-99.99,,,-99.99,161.240005,,2013-02-21 21:00:00,
2013-02-21 16:42:00,25.0,20.0,-100.00,ENE,67,10.0,-999.0,78,-99.99,,,-99.99,161.240005,,2013-02-21 21:42:00,
2013-02-21 16:52:00,25.0,20.0,-100.00,ENE,67,10.0,-999.0,78,-99.99,,,-99.99,161.240005,,2013-02-21 21:52:00,
2013-02-21 17:00:00,26.0,20.0,-100.00,East,90,9.0,-999.0,77,-99.99,,,-99.99,93.959999,,2013-02-21 22:00:00,
2013-02-21 17:42:00,26.0,20.0,-100.00,East,90,9.0,-999.0,77,-99.99,,,-99.99,93.959999,,2013-02-21 22:42:00,
2013-02-21 17:52:00,26.0,20.0,-100.00,East,90,9.0,-999.0,77,-99.99,,,-99.99,93.959999,,2013-02-21 22:52:00,
2013-02-21 18:00:00,26.0,20.0,-100.00,East,90,10.0,-999.0,76,-99.99,,,-99.99,34.799999,,2013-02-21 23:00:00,
2013-02-21 18:42:00,26.0,20.0,-100.00,East,90,10.0,-999.0,76,-99.99,,,-99.99,34.799999,,2013-02-21 23:42:00,
2013-02-21 18:53:00,26.0,20.0,-100.00,East,90,10.0,-999.0,76,-99.99,,,-99.99,34.799999,,2013-02-21 23:53:00,
2013-02-21 19:00:00,26.0,20.0,-100.00,East,90,12.0,-999.0,77,-99.99,,,-99.99,1.160000,,2013-02-22 00:00:00,
2013-02-21 19:42:00,26.0,20.0,-100.00,East,90,12.0,-999.0,77,-99.99,,,-99.99,1.160000,,2013-02-22 00:42:00,
2013-02-21 19:52:00,26.0,20.0,-100.00,East,90,12.0,-999.0,77,-99.99,,,-99.99,1.160000,,2013-02-22 00:52:00,
2013-02-21 20:00:00,25.0,19.0,-100.00,East,90,11.0,-999.0,77,-99.99,,,-99.99,0.000000,,2013-02-22 01:00:00,
2013-02-21 20:42:00,25.0,19.0,-100.00,East,90,11.0,-999.0,77,-99.99,,,-99.99,0.000000,,2013-02-22 01:42:00,
2013-02-21 20:52:00,25.0,19.0,-100.00,East,90,11.0,-999.0,77,-99.99,,,-99.99,0.000000,,2013-02-22 01:52:00,
2013-02-21 21:00:00,24.0,18.0,-100.00,East,90,15.0,-999.0,78,-99.99,,,-99.99,0.000000,,2013-02-22 02:00:00,
2013-02-21 21:42:00,24.0,18.0,-100.00,East,90,15.0,-999.0,78,-99.99,,,-99.99,0.000000,,2013-02-22 02:42:00,
2013-02-21 21:52:00,24.0,18.0,-100.00,East,90,15.0,-999.0,78,-99.99,,,-99.99,0.000000,,2013-02-22 02:52:00,
2013-02-21 22:00:00,23.0,18.0,-100.00,East,90,14.0,-999.0,79,-99.99,,,-99.99,0.000000,,2013-02-22 03:00:00,
2013-02-21 22:42:00,23.0,18.0,-100.00,East,90,14.0,-999.0,79,-99.99,,,-99.99,0.000000,,2013-02-22 03:42:00,
2013-02-21 22:52:00,23.0,18.0,-100.00,East,90,14.0,-999.0,79,-99.99,,,-99.99,0.000000,,2013-02-22 03:52:00,
2013-02-21 23:00:00,22.0,16.0,-100.00,East,90,15.0,-999.0,77,-99.99,,,-99.99,0.000000,,2013-02-22 04:00:00,
2013-02-21 23:42:00,22.0,16.0,-100.00,East,90,15.0,-999.0,77,-99.99,,,-99.99,0.000000,,2013-02-22 04:42:00,
2013-02-21 23:52:00,22.0,16.0,-100.00,East,90,15.0,-999.0,77,-99.99,,,-99.99,0.000000,,2013-02-22 04:52:00,